380P/PanSTARRS (2019)

Japanese version
Home page
Updated on August 6, 2019

---------------------------------------------------------------------

* Profile

Designation 380P/2019 G1
Discovery Date April 3, 2019
Magnitude 19.9 mag
Discoverer Pan-STARRS 1 telescope (Haleakala)

* Pictures

* Orbital Elements

Epoch 2019 June 6.0 TT = JDT 2458640.5
T 2019 June 6.90803 TT                                  MPCW
q   3.0496795            (2000.0)            P               Q
n   0.10217910     Peri.   90.06620     -0.72181001     +0.68414726
a   4.5313541      Node   133.10306     -0.67820382     -0.66909411
e   0.3269827      Incl.    8.23355     -0.13794884     -0.29026815
P   9.65
From 170 observations 2018 Jan. 16-2019 May 12, mean residual 0".5.

* Magnitudes Graph

        m1 = 7.0 + 5 log d + 20.0 log r

---------------------------------------------------------------------

The orbital elements are published on M.P.E.C. 2019-J142.
The magnitudes graphs are made with Comet for Windows.

---------------------------------------------------------------------

Copyright(C) Seiichi Yoshida (comet@aerith.net). All rights reserved.